LOT639 EPWA-LROP

Flight info

Callsign LOT639
Flight time 1h 24m
Altitude 35000
Route XIMBA N195 NATEV DCT ROBTU DCT KENIN DCT KARIL DCT DENAK
Aircraft E195/M-SDE3GILORVW/S

Departure

Time 2026-05-01 11:29
Airport Warsaw Chopin Airport (EPWA)

Arrival

Time 2026-05-01 12:54
Airport Bucharest Henri Coandă International Airport (LROP)
Time Latitude Longitude Altitude Speed Heading
2026-05-01 11:11 52.16850 20.97285 337 ft 0 kts 76°
2026-05-01 11:20 52.16845 20.97255 333 ft 4 kts 76°
2026-05-01 11:21 52.16841 20.97226 332 ft 4 kts 76°
2026-05-01 11:21 52.16834 20.97184 332 ft 4 kts 76°
2026-05-01 11:21 52.16830 20.97150 333 ft 4 kts 101°
2026-05-01 11:21 52.16842 20.97116 334 ft 4 kts 148°
2026-05-01 11:22 52.16858 20.97102 335 ft 0 kts 152°
2026-05-01 11:23 52.16857 20.97103 337 ft 1 kts 152°
2026-05-01 11:24 52.16851 20.97108 337 ft 2 kts 152°
2026-05-01 11:24 52.16837 20.97120 335 ft 3 kts 152°
2026-05-01 11:24 52.16784 20.97166 337 ft 6 kts 152°
2026-05-01 11:25 52.16746 20.97199 335 ft 7 kts 152°
2026-05-01 11:25 52.16646 20.97286 337 ft 9 kts 152°
2026-05-01 11:25 52.16588 20.97345 335 ft 10 kts 134°
2026-05-01 11:26 52.16554 20.97452 335 ft 11 kts 114°
2026-05-01 11:26 52.16485 20.97704 333 ft 13 kts 113°
2026-05-01 11:26 52.16428 20.97806 336 ft 13 kts 181°
2026-05-01 11:27 52.16353 20.97757 337 ft 11 kts 203°
2026-05-01 11:27 52.16307 20.97668 336 ft 12 kts 277°
2026-05-01 11:27 52.16320 20.97614 334 ft 2 kts 295°
2026-05-01 11:27 52.16321 20.97614 334 ft 0 kts 295°
2026-05-01 11:28 52.16321 20.97613 334 ft 0 kts 295°
2026-05-01 11:28 52.16327 20.97593 337 ft 7 kts 295°
2026-05-01 11:28 52.16407 20.97306 333 ft 57 kts 294°
2026-05-01 11:29 52.17069 20.95076 357 ft 155 kts 300°
2026-05-01 11:29 52.17543 20.93365 692 ft 175 kts 294°
2026-05-01 11:29 52.17957 20.89358 1928 ft 195 kts 269°
2026-05-01 11:30 52.18026 20.87088 2560 ft 203 kts 275°
2026-05-01 11:30 52.17945 20.84771 3220 ft 208 kts 264°
2026-05-01 11:30 52.17579 20.82382 3491 ft 228 kts 254°
2026-05-01 11:30 52.17003 20.79884 4032 ft 241 kts 251°
2026-05-01 11:31 52.16441 20.77206 4483 ft 258 kts 258°
2026-05-01 11:31 52.15998 20.74306 5054 ft 270 kts 248°
2026-05-01 11:31 52.14848 20.71844 5690 ft 281 kts 219°
2026-05-01 11:31 52.13048 20.70568 6316 ft 288 kts 187°
2026-05-01 11:32 52.11055 20.70856 6883 ft 291 kts 157°
2026-05-01 11:32 52.09389 20.72619 7484 ft 286 kts 130°
2026-05-01 11:32 52.08055 20.74965 8107 ft 287 kts 127°
2026-05-01 11:32 52.06744 20.77429 8720 ft 289 kts 125°
2026-05-01 11:33 52.05434 20.79928 9327 ft 292 kts 125°
2026-05-01 11:33 52.04093 20.82431 9974 ft 296 kts 127°
2026-05-01 11:33 52.02607 20.84866 10319 ft 312 kts 130°
2026-05-01 11:33 52.01025 20.87384 10683 ft 323 kts 130°
2026-05-01 11:34 51.99408 20.89931 11275 ft 325 kts 130°
2026-05-01 11:34 51.97781 20.92497 11885 ft 327 kts 129°
2026-05-01 11:34 51.96186 20.95012 12447 ft 330 kts 129°
2026-05-01 11:34 51.94527 20.97621 13030 ft 333 kts 129°
2026-05-01 11:35 51.92861 21.00248 13631 ft 336 kts 129°
2026-05-01 11:35 51.91177 21.02891 14221 ft 338 kts 128°
2026-05-01 11:35 51.89505 21.05520 14751 ft 340 kts 128°
2026-05-01 11:35 51.87797 21.08201 15275 ft 343 kts 128°
2026-05-01 11:36 51.86078 21.10895 15815 ft 346 kts 128°
2026-05-01 11:36 51.84340 21.13613 16355 ft 348 kts 128°
2026-05-01 11:36 51.82594 21.16342 16863 ft 351 kts 128°
2026-05-01 11:36 51.80831 21.19096 17405 ft 353 kts 128°
2026-05-01 11:37 51.79059 21.21861 17937 ft 356 kts 128°
2026-05-01 11:37 51.77273 21.24645 18476 ft 358 kts 128°
2026-05-01 11:37 51.75469 21.27452 18968 ft 361 kts 128°
2026-05-01 11:37 51.73651 21.30276 19469 ft 363 kts 128°
2026-05-01 11:38 51.71827 21.33109 19962 ft 365 kts 128°
2026-05-01 11:38 51.69987 21.35961 20457 ft 368 kts 128°
2026-05-01 11:38 51.68138 21.38826 20942 ft 370 kts 128°
2026-05-01 11:38 51.66296 21.41572 21389 ft 375 kts 131°
2026-05-01 11:39 51.64140 21.44065 21819 ft 386 kts 141°
2026-05-01 11:39 51.61850 21.46349 22251 ft 388 kts 140°
2026-05-01 11:39 51.59527 21.48600 22681 ft 391 kts 141°
2026-05-01 11:39 51.57214 21.50826 23109 ft 394 kts 141°
2026-05-01 11:40 51.54853 21.53088 23543 ft 396 kts 141°
2026-05-01 11:40 51.52477 21.55367 23955 ft 399 kts 141°
2026-05-01 11:40 51.50087 21.57652 24331 ft 401 kts 141°
2026-05-01 11:40 51.47688 21.59946 24704 ft 403 kts 141°
2026-05-01 11:41 51.45271 21.62252 25065 ft 405 kts 141°
2026-05-01 11:41 51.42843 21.64568 25426 ft 407 kts 141°
2026-05-01 11:41 51.40396 21.66886 25771 ft 409 kts 141°
2026-05-01 11:41 51.37946 21.69230 26104 ft 411 kts 141°
2026-05-01 11:42 51.35482 21.71573 26425 ft 413 kts 141°
2026-05-01 11:42 51.33008 21.73927 26734 ft 415 kts 141°
2026-05-01 11:42 51.30516 21.76293 27038 ft 417 kts 141°
2026-05-01 11:42 51.28015 21.78666 27362 ft 418 kts 141°
2026-05-01 11:43 51.25506 21.81043 27638 ft 420 kts 141°
2026-05-01 11:43 51.22986 21.83432 27934 ft 422 kts 141°
2026-05-01 11:43 51.20453 21.85822 28230 ft 424 kts 141°
2026-05-01 11:44 51.15357 21.90618 28804 ft 428 kts 141°
2026-05-01 11:44 51.12786 21.93027 29094 ft 429 kts 141°
2026-05-01 11:44 51.10201 21.95444 29378 ft 431 kts 141°
2026-05-01 11:44 51.07611 21.97865 29648 ft 433 kts 141°
2026-05-01 11:45 51.05010 22.00290 29846 ft 437 kts 141°
2026-05-01 11:45 51.02362 22.02763 29887 ft 443 kts 141°
2026-05-01 11:45 50.99697 22.05234 30199 ft 443 kts 141°
2026-05-01 11:45 50.97039 22.07707 30507 ft 443 kts 141°
2026-05-01 11:46 50.94375 22.10181 30752 ft 443 kts 141°
2026-05-01 11:46 50.91712 22.12649 30986 ft 444 kts 141°
2026-05-01 11:46 50.89003 22.15024 31214 ft 450 kts 147°
2026-05-01 11:46 50.86037 22.16788 31410 ft 460 kts 157°
2026-05-01 11:47 50.82907 22.17778 31633 ft 469 kts 167°
2026-05-01 11:47 50.79621 22.17981 31835 ft 477 kts 177°
2026-05-01 11:47 50.76299 22.17399 32049 ft 482 kts 185°
2026-05-01 11:47 50.72993 22.16433 32280 ft 483 kts 187°
2026-05-01 11:48 50.69698 22.15366 32503 ft 484 kts 188°
2026-05-01 11:48 50.66399 22.14264 32726 ft 484 kts 188°
2026-05-01 11:48 50.63108 22.13157 32948 ft 484 kts 188°
2026-05-01 11:48 50.59979 22.12161 33151 ft 482 kts 184°
2026-05-01 11:49 50.56659 22.11498 33362 ft 481 kts 183°
2026-05-01 11:49 50.53335 22.10835 33579 ft 481 kts 182°
2026-05-01 11:49 50.50012 22.10224 33798 ft 481 kts 182°
2026-05-01 11:49 50.46643 22.09604 34031 ft 481 kts 182°
2026-05-01 11:50 50.43321 22.08992 34247 ft 481 kts 182°
2026-05-01 11:50 50.40033 22.08388 34453 ft 480 kts 182°
2026-05-01 11:50 50.36717 22.07779 34654 ft 480 kts 182°
2026-05-01 11:50 50.33406 22.07172 34864 ft 479 kts 182°
2026-05-01 11:51 50.30086 22.06563 35062 ft 478 kts 182°
2026-05-01 11:51 50.26812 22.05961 35200 ft 470 kts 182°
2026-05-01 11:51 50.20283 22.04770 35308 ft 476 kts 182°
2026-05-01 11:52 50.13636 22.03557 35334 ft 485 kts 182°
2026-05-01 11:52 50.06860 22.02324 35334 ft 495 kts 182°
2026-05-01 11:53 49.99966 22.01072 35329 ft 500 kts 182°
2026-05-01 11:53 49.93074 21.99826 35324 ft 497 kts 182°
2026-05-01 11:54 49.86192 21.98586 35332 ft 498 kts 182°
2026-05-01 11:54 49.79296 21.97347 35320 ft 498 kts 182°
2026-05-01 11:55 49.72451 21.96118 35337 ft 498 kts 182°
2026-05-01 11:55 49.65661 21.94903 35327 ft 498 kts 182°
2026-05-01 11:56 49.58772 21.93675 35342 ft 499 kts 182°
2026-05-01 11:56 49.51879 21.92450 35328 ft 499 kts 182°
2026-05-01 11:57 49.46100 21.91425 35328 ft 499 kts 182°
2026-05-01 11:57 49.38086 21.90008 35334 ft 498 kts 182°
2026-05-01 11:58 49.31189 21.88792 35324 ft 498 kts 182°
2026-05-01 11:59 49.20841 21.86975 35327 ft 499 kts 182°
2026-05-01 11:59 49.13944 21.85767 35326 ft 499 kts 182°
2026-05-01 12:00 49.03649 21.83971 35334 ft 499 kts 182°
2026-05-01 12:01 48.93308 21.82178 35331 ft 498 kts 181°
2026-05-01 12:01 48.86441 21.82162 35327 ft 488 kts 167°
2026-05-01 12:02 48.79719 21.83550 35329 ft 487 kts 165°
2026-05-01 12:02 48.72993 21.84981 35323 ft 487 kts 165°
2026-05-01 12:03 48.66277 21.86403 35334 ft 488 kts 165°
2026-05-01 12:03 48.60691 21.87583 35327 ft 488 kts 165°
2026-05-01 12:04 48.53965 21.88998 35333 ft 488 kts 165°
2026-05-01 12:04 48.47240 21.90407 35324 ft 488 kts 165°
2026-05-01 12:05 48.40513 21.91815 35330 ft 488 kts 165°
2026-05-01 12:05 48.34106 21.94527 35338 ft 469 kts 146°
2026-05-01 12:05 48.31281 21.96880 35341 ft 459 kts 137°
2026-05-01 12:06 48.25960 22.02054 35327 ft 460 kts 139°
2026-05-01 12:06 48.20498 22.07075 35335 ft 460 kts 139°
2026-05-01 12:07 48.15017 22.12068 35323 ft 460 kts 139°
2026-05-01 12:07 48.09536 22.17046 35330 ft 460 kts 139°
2026-05-01 12:08 48.04057 22.22012 35321 ft 460 kts 139°
2026-05-01 12:08 47.98584 22.26961 35325 ft 460 kts 139°
2026-05-01 12:09 47.93101 22.31907 35317 ft 460 kts 139°
2026-05-01 12:09 47.87607 22.36830 35318 ft 462 kts 140°
2026-05-01 12:10 47.79789 22.44775 35320 ft 457 kts 137°
2026-05-01 12:11 47.71862 22.52664 35319 ft 457 kts 137°
2026-05-01 12:11 47.66558 22.57896 35315 ft 457 kts 137°
2026-05-01 12:12 47.61247 22.63124 35319 ft 458 kts 137°
2026-05-01 12:12 47.55931 22.68345 35317 ft 458 kts 137°
2026-05-01 12:13 47.50644 22.73527 35319 ft 458 kts 138°
2026-05-01 12:13 47.45323 22.78728 35311 ft 458 kts 138°
2026-05-01 12:14 47.40004 22.83918 35319 ft 459 kts 138°
2026-05-01 12:14 47.34670 22.89104 35303 ft 459 kts 139°
2026-05-01 12:15 47.29334 22.94282 35299 ft 459 kts 139°
2026-05-01 12:15 47.23995 22.99453 35306 ft 459 kts 139°
2026-05-01 12:16 47.18656 23.04609 35296 ft 459 kts 139°
2026-05-01 12:16 47.13319 23.09751 35294 ft 459 kts 140°
2026-05-01 12:17 47.07972 23.14889 35292 ft 459 kts 140°
2026-05-01 12:17 47.02659 23.19981 35294 ft 459 kts 140°
2026-05-01 12:18 46.97304 23.25102 35291 ft 459 kts 141°
2026-05-01 12:18 46.91948 23.30213 35280 ft 459 kts 141°
2026-05-01 12:19 46.86597 23.35307 35281 ft 459 kts 141°
2026-05-01 12:19 46.81237 23.40392 35295 ft 459 kts 141°
2026-05-01 12:20 46.75877 23.45469 35292 ft 459 kts 142°
2026-05-01 12:20 46.70509 23.50544 35295 ft 459 kts 142°
2026-05-01 12:21 46.65171 23.55574 35282 ft 459 kts 142°
2026-05-01 12:21 46.59800 23.60625 35293 ft 460 kts 142°
2026-05-01 12:22 46.54420 23.65670 35283 ft 459 kts 143°
2026-05-01 12:22 46.49046 23.70699 35283 ft 460 kts 143°
2026-05-01 12:23 46.43668 23.75720 35268 ft 459 kts 143°
2026-05-01 12:23 46.38287 23.80733 35273 ft 459 kts 143°
2026-05-01 12:24 46.32899 23.85739 35273 ft 459 kts 143°
2026-05-01 12:24 46.27523 23.90722 35273 ft 459 kts 144°
2026-05-01 12:25 46.19442 23.98191 35272 ft 459 kts 144°
2026-05-01 12:26 46.14051 24.03158 35271 ft 460 kts 144°
2026-05-01 12:26 46.05992 24.10564 35284 ft 459 kts 144°
2026-05-01 12:27 45.97896 24.17975 35280 ft 459 kts 145°
2026-05-01 12:28 45.89787 24.25375 34906 ft 462 kts 145°
2026-05-01 12:28 45.84413 24.30261 33869 ft 451 kts 145°
2026-05-01 12:29 45.81781 24.32654 33300 ft 445 kts 145°
2026-05-01 12:29 45.79188 24.35007 32747 ft 439 kts 145°
2026-05-01 12:29 45.74104 24.39610 31681 ft 433 kts 145°
2026-05-01 12:30 45.68959 24.44260 30679 ft 439 kts 146°
2026-05-01 12:30 45.66376 24.46588 30151 ft 438 kts 146°
2026-05-01 12:30 45.63803 24.48907 29570 ft 437 kts 146°
2026-05-01 12:31 45.61227 24.51224 28986 ft 436 kts 146°
2026-05-01 12:31 45.58677 24.53520 28414 ft 432 kts 146°
2026-05-01 12:31 45.56136 24.55800 27833 ft 428 kts 146°
2026-05-01 12:31 45.53660 24.58024 27254 ft 424 kts 146°
2026-05-01 12:32 45.51175 24.60248 26702 ft 421 kts 146°
2026-05-01 12:32 45.46249 24.64654 25619 ft 414 kts 146°
2026-05-01 12:32 45.43816 24.66832 25093 ft 411 kts 146°
2026-05-01 12:33 45.41398 24.68990 24580 ft 409 kts 146°
2026-05-01 12:33 45.38987 24.71140 24078 ft 405 kts 146°
2026-05-01 12:33 45.36607 24.73260 23520 ft 402 kts 146°
2026-05-01 12:33 45.34245 24.75360 22927 ft 398 kts 146°
2026-05-01 12:34 45.31912 24.77435 22347 ft 394 kts 146°
2026-05-01 12:34 45.29596 24.79492 21786 ft 391 kts 146°
2026-05-01 12:34 45.27294 24.81536 21236 ft 388 kts 146°
2026-05-01 12:34 45.25014 24.83557 20684 ft 385 kts 146°
2026-05-01 12:35 45.22752 24.85557 20143 ft 382 kts 146°
2026-05-01 12:35 45.20499 24.87552 19623 ft 380 kts 146°
2026-05-01 12:35 45.18265 24.89525 19114 ft 377 kts 146°
2026-05-01 12:35 45.16072 24.91462 18626 ft 374 kts 146°
2026-05-01 12:36 45.13865 24.93411 18062 ft 372 kts 146°
2026-05-01 12:36 45.11683 24.95333 17498 ft 368 kts 146°
2026-05-01 12:36 45.09525 24.97234 16931 ft 364 kts 146°
2026-05-01 12:36 45.07381 24.99120 16377 ft 360 kts 146°
2026-05-01 12:37 45.05260 25.00980 15841 ft 356 kts 146°
2026-05-01 12:37 45.03162 25.02828 15316 ft 353 kts 146°
2026-05-01 12:37 45.01077 25.04655 14803 ft 350 kts 146°
2026-05-01 12:37 44.99016 25.06463 14287 ft 347 kts 146°
2026-05-01 12:38 44.96969 25.08259 13739 ft 345 kts 146°
2026-05-01 12:38 44.94941 25.10035 13167 ft 342 kts 146°
2026-05-01 12:38 44.92952 25.11774 12627 ft 339 kts 146°
2026-05-01 12:38 44.90954 25.13521 12087 ft 337 kts 146°
2026-05-01 12:39 44.88971 25.15254 11562 ft 334 kts 147°
2026-05-01 12:39 44.87025 25.16940 11389 ft 321 kts 147°
2026-05-01 12:39 44.85170 25.18557 11316 ft 305 kts 147°
2026-05-01 12:39 44.83408 25.20094 11236 ft 292 kts 147°
2026-05-01 12:40 44.81671 25.21610 10892 ft 289 kts 147°
2026-05-01 12:40 44.79964 25.23101 10541 ft 288 kts 147°
2026-05-01 12:40 44.78261 25.24580 10177 ft 287 kts 147°
2026-05-01 12:40 44.76582 25.26031 9792 ft 286 kts 147°
2026-05-01 12:41 44.74893 25.27497 9393 ft 285 kts 147°
2026-05-01 12:41 44.73198 25.28936 9001 ft 284 kts 148°
2026-05-01 12:41 44.71498 25.30336 8606 ft 282 kts 149°
2026-05-01 12:41 44.69805 25.31716 8217 ft 281 kts 149°
2026-05-01 12:42 44.68112 25.33088 7838 ft 280 kts 149°
2026-05-01 12:42 44.66429 25.34452 7469 ft 279 kts 149°
2026-05-01 12:42 44.64749 25.35814 7053 ft 279 kts 149°
2026-05-01 12:42 44.63043 25.37199 6432 ft 287 kts 149°
2026-05-01 12:43 44.61295 25.38622 5809 ft 293 kts 149°
2026-05-01 12:43 44.59519 25.40071 5213 ft 298 kts 149°
2026-05-01 12:43 44.57721 25.41548 4580 ft 301 kts 149°
2026-05-01 12:43 44.55905 25.43044 3986 ft 304 kts 149°
2026-05-01 12:44 44.54128 25.44510 3377 ft 287 kts 149°
2026-05-01 12:44 44.52450 25.45932 3121 ft 277 kts 142°
2026-05-01 12:44 44.50993 25.50337 2990 ft 246 kts 88°
2026-05-01 12:45 44.51497 25.54799 2974 ft 219 kts 75°
2026-05-01 12:45 44.51851 25.56823 3029 ft 208 kts 73°
2026-05-01 12:45 44.52402 25.58600 3099 ft 191 kts 59°
2026-05-01 12:46 44.52806 25.60332 3095 ft 186 kts 81°
2026-05-01 12:46 44.52913 25.62118 3110 ft 184 kts 81°
2026-05-01 12:46 44.53090 25.63893 3093 ft 185 kts 80°
2026-05-01 12:46 44.53232 25.65687 3063 ft 185 kts 82°
2026-05-01 12:47 44.53361 25.67478 3045 ft 184 kts 81°
2026-05-01 12:47 44.53515 25.69261 2998 ft 184 kts 80°
2026-05-01 12:47 44.53652 25.71044 3037 ft 184 kts 81°
2026-05-01 12:47 44.53789 25.72822 3050 ft 184 kts 81°
2026-05-01 12:48 44.53933 25.74614 3054 ft 184 kts 81°
2026-05-01 12:48 44.54069 25.76399 3070 ft 184 kts 81°
2026-05-01 12:48 44.54160 25.77584 3106 ft 184 kts 81°
2026-05-01 12:48 44.54346 25.79943 3159 ft 184 kts 81°
2026-05-01 12:49 44.54487 25.81724 3111 ft 184 kts 81°
2026-05-01 12:49 44.54624 25.83506 3079 ft 183 kts 81°
2026-05-01 12:49 44.54761 25.85285 3066 ft 184 kts 81°
2026-05-01 12:49 44.54852 25.86478 2980 ft 188 kts 82°
2026-05-01 12:50 44.54985 25.88285 2816 ft 183 kts 82°
2026-05-01 12:50 44.55119 25.89974 2583 ft 166 kts 81°
2026-05-01 12:50 44.55240 25.91527 2402 ft 156 kts 82°
2026-05-01 12:50 44.55354 25.93032 2246 ft 154 kts 82°
2026-05-01 12:51 44.55466 25.94509 2031 ft 150 kts 80°
2026-05-01 12:51 44.55578 25.95940 1834 ft 144 kts 81°
2026-05-01 12:51 44.55784 25.98673 1536 ft 142 kts 81°
2026-05-01 12:52 44.55891 26.00044 1364 ft 142 kts 81°
2026-05-01 12:52 44.56101 26.02788 991 ft 142 kts 82°
2026-05-01 12:52 44.56201 26.04155 824 ft 141 kts 83°
2026-05-01 12:53 44.56413 26.06876 480 ft 141 kts 80°
2026-05-01 12:53 44.56523 26.08243 359 ft 137 kts 84°
2026-05-01 12:53 44.56559 26.09489 323 ft 116 kts 85°
2026-05-01 12:54 44.56669 26.10336 322 ft 39 kts 87°
2026-05-01 12:54 44.56796 26.10753 321 ft 21 kts 353°
2026-05-01 12:54 44.56872 26.10744 321 ft 10 kts 357°
2026-05-01 12:55 44.57015 26.10681 321 ft 12 kts 307°
2026-05-01 12:55 44.57041 26.10563 321 ft 13 kts 283°
2026-05-01 12:55 44.57057 26.10428 321 ft 15 kts 266°
2026-05-01 12:56 44.57044 26.10281 321 ft 16 kts 257°
2026-05-01 12:56 44.57032 26.10122 321 ft 17 kts 263°
2026-05-01 12:56 44.57015 26.09953 321 ft 18 kts 271°
2026-05-01 12:56 44.57009 26.09772 321 ft 19 kts 262°
2026-05-01 12:57 44.56994 26.09581 321 ft 20 kts 264°
2026-05-01 12:57 44.56970 26.09212 321 ft 17 kts 264°
2026-05-01 12:57 44.56956 26.09038 321 ft 19 kts 262°
2026-05-01 12:58 44.56939 26.08858 321 ft 13 kts 262°
2026-05-01 12:58 44.56928 26.08725 321 ft 14 kts 265°
2026-05-01 12:58 44.56922 26.08612 321 ft 6 kts 266°
2026-05-01 12:59 44.56900 26.08470 321 ft 9 kts 267°
2026-05-01 12:59 44.56931 26.08393 320 ft 10 kts 313°
2026-05-01 12:59 44.56939 26.08187 321 ft 12 kts 264°
2026-05-01 13:00 44.56979 26.08141 321 ft 5 kts 352°
2026-05-01 13:00 44.57008 26.08135 321 ft 3 kts 351°
2026-05-01 13:01 44.57024 26.08132 321 ft 0 kts 353°